Regional Weather Roundup
Issued by NWS

Home | Current Version | Previous Version | Graphics & Text | Print | Product List | Glossary Off
Versions: 1 2 3 4 5 6 7 8 9 10 11 12 13 14 15 16 17 18 19 20 21 22 23 24 25 26 27 28 29 30 31 32 33 34 35 36 37 38 39 40 41 42 43 44 45 46 47 48 49 50

000
ASUS43 KBIS 221831
RWRND
NORTH DAKOTA REGIONAL WEATHER ROUNDUP
NATIONAL WEATHER SERVICE EASTERN NORTH DAKOTA/GRAND FORKS ND
1200 PM CST THU FEB 22 2018

  NOTE: "FAIR" INDICATES FEW OR NO CLOUDS BELOW 12,000 FEET WITH NO
  SIGNIFICANT WEATHER AND/OR OBSTRUCTIONS TO VISIBILITY.

NDZ001>003-009>011-017-221900-
...NORTHWEST NORTH DAKOTA...

CITY           SKY/WX    TMP DP  RH WIND       PRES   REMARKS
WILLISTON      FAIR       3  -7  63 SW6       30.27R WCI  -8
6HR MIN TEMP: -15; 6HR MAX TEMP:   3;

MINOT          FAIR      13  -2  51 CALM      30.27F
MINOT AFB      FAIR      10  -3  57 W5        30.26F WCI   1
6HR MIN TEMP: -13; 6HR MAX TEMP:  10;

$$

NDZ018>021-031>035-040>046-221900-
...SOUTHWEST NORTH DAKOTA...

CITY           SKY/WX    TMP DP  RH WIND       PRES   REMARKS
BISMARCK       FAIR       8   1  73 SE6       30.31F WCI  -2
DICKINSON      FAIR      10  -1  61 NW7       30.16F WCI  -1
GARRISON         N/A      5  -3  69 CALM      30.26F
HETTINGER      FAIR       6  -2  69 CALM      30.18F
$$

NDZ004>008-012>016-024-026-027-054-221900-
...NORTHEAST NORTH DAKOTA...

CITY           SKY/WX    TMP DP  RH WIND       PRES   REMARKS
GRAND FORKS    FAIR      10   3  73 S15       30.43F WCI  -7
GRAND FORKS AF FAIR      12   2  65 S12       30.41F WCI  -2
DEVILS LAKE    FAIR       9   1  70 SW8       30.33F WCI  -3
$$

NDZ022-023-025-028>030-036>039-047>053-221900-
...SOUTHEAST NORTH DAKOTA...

CITY           SKY/WX    TMP DP  RH WIND       PRES   REMARKS
JAMESTOWN      FAIR      16   8  71 S7        30.33F WCI   6
FARGO          CLOUDY    17   9  70 S17       30.44F WCI   1
WAHPETON       CLOUDY    21  12  68 SE18      30.44F WCI   6
$$




USA.gov is the U.S. government's official web portal to all federal, state and local government web resources and services.